{"data":{"norad_id":64421,"intl_designator":"2025-129K","name":"STARLINK-34498","alt_names":[],"object_type":"PAYLOAD","status":"ACTIVE","operator":null,"country":"US","launch_date":"2025-06-17","launch_site_code":"AFWTR","launch_vehicle":null,"mission":null,"orbit_class":"UNKNOWN","rcs_meters":null,"size_class":null,"mass_kg":null,"dimensions":null,"purposes":["comms"],"wikipedia_slug":null,"has_3d_model":false,"image_url":null,"decayed_at":null,"tle_current":{"epoch":"2026-09-20T16:00:01.999584Z","epoch_age_seconds":120187,"freshness":"FRESH","line1":"1 64421U 25129K   26263.66668981 -.00010746  00000+0 -36995-3 0  9999","line2":"2 64421  70.0001 300.3592 0003348 275.6384 152.2076 15.29576742  5738","mean_motion":15.29576742,"eccentricity":0.0003348,"inclination_deg":70.0001,"raan_deg":300.3592,"arg_perigee_deg":275.6384,"mean_anomaly_deg":152.2076,"bstar":-0.00036995,"rev_number":573,"period_min":94.143690895635,"perigee_km":474.78151180766,"apogee_km":479.37176285922,"semimajor_km":6855.2136373334,"source":"CELESTRAK","updated_at":"2026-09-21T09:00:35.347643Z"}}}